Location: Arrien
(42.8963°N, 1.0429°E)
Time: 09:34:00
(UTC+00:00)

ISS - Pass Details

Date: 16 February 2026
Orbit: 416 x 426 km, 51.6° (Epoch: 9 March)

Event Time Altitude Azimuth Distance (km) Brightness Sun altitude
Exits shadow 05:24:03 45° 258° (WSW) 577 -3.5 -16.7°
Maximum altitude 05:24:55 72° 328° (NNW) 441 -3.9 -16.5°
Drops below altitude 10° 05:28:16 10° 54° (NE) 1,493 -0.2 -15.9°
Sets 05:30:22 0° 56° (NE) 2,358 1.0 -15.6°
